星链-36887(STARLINK-36887)

导读

STARLINK-36887(NORAD编号67950)是SpaceX星链(Starlink)项目低轨互联网通信卫星,属于星链卫星组网的组成部分,承担全球宽带互联网接入服务功能。星链卫星普遍配备相控阵天线与星间激光链路技术,可实现多用户同时连接、低延迟高带宽通信,单星工作寿命约4-5年,后续将由新型号卫星迭代替换。该卫星运行于近地轨道,服务涵盖偏远地区网络覆盖,支撑星链星座整体通信容量与网络冗余性,是SpaceX构建全球低轨卫星互联网的重要节点。

Basic Information
目录编号:
67950
目录名称:
STARLINK-36887
国际标识:
2026-037U
轨道中心:
EARTH
卫星名称:
星链-36887
卫星全名:
星链-36887(STARLINK-36887)
卫星状态:
在轨 (已飞行193 天)
发射日期:
2026-02-24 UTC
国别 :
美国 (US)
星等 :
--
Orbit Information
数据来源 国际轨道数据 AOE轨道数据
星历时间 2026-09-05T10:14:35+0800
12小时前
查看轨道信息
2026-09-01T08:00:00+0800
4天前
查看轨道信息
半长轴 6861.164km 6861.217km
偏心率 0.0001117 0.0002115
轨道倾角 43.001° 43.003°
近地点辐角 242.801° 263.631°
升交点赤经 257.948° 281.067°
平近点角 117.273° 238.906°
近地点 482.26km 481.628km
远地点 483.794km 484.532km
周期 94.266分钟 94.267分钟
每日圈数 15.275877 15.2757
Detailed Information
固有亮度:
5
最大亮度:
2.5
卫星平台:
Starlink V1.0
覆盖范围:
全球
运营商:
太空探索技术公司
运营商所在国:
美国
制造商(研发单位):
太空探索技术公司
制造商所在国:
美国
使用方式:
暂无
Satellite Introduction
Starlink 计划是 SpaceX 推出的全球卫星互联网项目,通过发射低轨道卫星,为全球尤其是偏远地区提供高速、低延迟的互联网服务。自 2019 年起,Starlink 已部署数千颗卫星,旨在缩小全球数字鸿沟,推动互联网普及。该项目还为军事、航空等行业提供通信支持,带来广泛经济效益。
2D Orbit Map
3D Orbit Map
Orbit Altitude Analysis Chart
Orbit Inclination Analysis Chart
Orbit Comprehensive Analysis Chart
View Comprehensive Chart
Conjunction Data List
Event ID Objects TCA Miss Dist (km) Collision Risk Probability Collision Risk Index (CRI) Action
CDM_260907-235005-787606-795021
2026-09-07T
23:50:52+0000
0.363 km
远距离
2.752815E-4 高风险 0.84
CDM_260907-155506-791606-795021
2026-09-07T
15:55:26+0000
0.918 km
远距离
1.631819E-5 中风险 0.59
CDM_260907-181606-791606-795021
2026-09-07T
18:16:40+0000
0.921 km
远距离
1.614849E-5 中风险 0.59
CDM_260908-012505-787606-795021
2026-09-08T
01:25:01+0000
1.491 km
极远距离
4.377837E-6 低风险 0.48
CDM_260908-023406-430606-795021
2026-09-08T
02:34:05+0000
1.706 km
极远距离
3.937631E-6 低风险 0.47
CDM_260907-221605-787606-795021
2026-09-07T
22:16:43+0000
2.151 km
极远距离
1.596994E-6 低风险 0.39
CDM_260907-155401-312106-795022
SL-3 R/B (13121)
2026-09-07T
15:54:14+0000
2.686 km
极远距离
1.098367E-6 低风险 0.36